Simultaneous Nadir Overpasses (SNOs) Predictions

Prediction of SNOs between NOAA-19 and TERRA Satellite Orbit:

Table of predicted SNOs for the next 14.0 days since TLE Epoch: 1/19/2013
Index Date (NOAA-19) Time (NOAA-19) Lat,Lon (NOAA-19) SZA (NOAA-19 ) Date (TERRA) Time (TERRA) Lat,Lon (TERRA) SZA (TERRA ) Distance(km) Time Diff (sec)
1 01/20/2013 07:09:30 69.25, 72.19 89.24 01/20/2013 07:09:58 69.23, 72.23 89.21 2.81 28
2 01/20/2013 08:00:23 -69.07,-120.29 90.96 01/20/2013 07:59:29 -69.07,-120.35 90.96 2.43 54
3 01/22/2013 11:53:57 69.21, 1.14 88.71 01/22/2013 11:54:15 69.24, 1.16 88.73 2.83 18
4 01/22/2013 12:44:51 -69.06, 168.61 91.46 01/22/2013 12:43:46 -69.07, 168.58 91.45 1.39 65
5 01/24/2013 16:38:25 69.23, -70.00 88.21 01/24/2013 16:38:32 69.23, -69.92 88.19 3.04 7
6 01/24/2013 17:29:17 -68.96, 97.66 92.09 01/24/2013 17:28:04 -69.01, 97.43 92.03 10.67 73
7 01/26/2013 20:32:02 -70.10, 50.38 91.44 01/26/2013 20:33:10 -69.97, 52.38 91.62 77.24 68
8 01/26/2013 21:22:52 69.21,-141.06 87.63 01/26/2013 21:22:49 69.20,-141.02 87.62 1.82 3
9 01/26/2013 22:13:38 -68.59, 27.06 93.02 01/26/2013 22:12:27 -68.65, 25.91 92.93 46.80 71
10 01/29/2013 01:16:22 -69.69, -20.10 92.44 01/29/2013 01:17:33 -69.61, -19.19 92.55 36.25 71
11 01/29/2013 02:07:19 69.19, 147.86 87.04 01/29/2013 02:07:06 69.16, 147.86 87.01 2.92 13
12 01/29/2013 02:57:58 -68.17, -43.50 94.02 01/29/2013 02:56:51 -68.23, -45.67 93.92 89.82 67
13 01/31/2013 06:00:43 -69.34, -90.68
